Location: Starlight Observatory
(38.4029°N, 85.8936°W)
Time: 16:38:27
(UTC-04:00)

Daily predictions for brighter satellites

Satellite Brightness Start Highest point End
(mag) Time Altitude Azimuth Time Altitude Azimuth Time Altitude Azimuth
Cosmos 1624 Rocket 4.0 19:52:25 10° NNW 19:57:39 72° ENE 20:02:49 10° SSE
OAO 3 Rocket 3.6 19:53:10 10° WSW 19:57:46 53° S 20:02:28 10° E
USA 215 3.5 19:51:50 10° NE 19:58:09 49° SE 20:04:24 10° SSW
Aureole 2 Rocket 3.0 19:54:17 10° S 19:58:38 70° ESE 20:02:57 10° NNE
Cosmos 1484 Rocket 2.8 19:56:49 10° SSE 20:00:38 90° WSW 20:04:32 10° NNW
SAR-Lupe-1 4.3 19:58:10 10° SSE 20:01:35 47° ENE 20:05:02 10° N
SL-19 R/B 4.3 19:56:34 10° SSE 20:02:07 73° ENE 20:08:01 10° NNW
ASTRO E2 4.0 20:00:45 10° WSW 20:04:18 30° S 20:07:51 10° ESE
Cosmos 1766 Rocket 4.4 20:00:56 10° NNE 20:04:46 29° ENE 20:08:33 10° SE
CZ-4C R/B 3.6 20:01:48 10° WSW 20:06:46 38° NW 20:12:19 10° NNE
ALOS 3.7 20:05:17 10° ESE 20:08:33 19° ENE 20:11:49 10° NNE
Cosmos 2237 Rocket 3.7 20:04:08 10° SW 20:09:27 40° WNW 20:14:48 10° N
Cosmos 2034 Rocket 4.4 20:04:11 10° SSE 20:09:59 41° E 20:15:50 10° NNE
BREEZE-M TANK 3.7 19:59:27 10° WNW 20:11:23 70° SW 20:14:52 10° SE
Cosmos 1464 Rocket 4.0 20:05:39 10° S 20:11:45 59° E 20:17:49 10° NNE
Helios 1B rocket 3.1 20:09:18 10° NNE 20:13:02 33° E 20:16:46 10° SSE
ATLAS 5 CENTAUR R/B 1.9 20:08:30 10° SSW 20:13:07 58° ESE 20:18:06 10° NE
Meteor 1-29 4.0 20:10:37 10° NE 20:13:33 24° E 20:16:27 10° SSE
Atlas Centaur 2 4.0 20:07:26 10° W 20:15:13 40° SSW 20:22:37 10° SE
Cosmos 1076 Rocket 3.7 20:11:56 10° N 20:16:08 48° E 20:20:21 10° SSE
SeaSat 1 4.0 20:15:41 10° ENE 20:18:24 15° ESE 20:21:05 10° SE
Cosmos 1766 3.3 20:16:45 10° S 20:20:41 85° W 20:24:42 10° N
Cosmos-2242 3.6 20:16:48 10° SSE 20:20:47 36° E 20:24:48 10° NNE
BREEZE-M DEB (TANK) 4.5 20:20:54 10° WNW 20:24:32 57° SW 20:36:31 10° SE
CZ-4B DEB 4.3 20:23:55 17° E 20:24:39 18° ENE 20:26:59 10° NNE
Cosmos 1452 Rocket 3.7 20:21:57 10° N 20:27:04 50° ENE 20:32:09 10° SE
SL-16 R/B 2.7 20:23:50 10° SSW 20:29:27 64° WNW 20:35:08 10° NNE
NOSS 3-2 (A) 3.8 20:23:45 10° SW 20:29:45 71° NW 20:36:20 10° NNE
FREGAT/IRIS 2.6 20:27:21 10° SSE 20:30:26 90° ENE 20:33:33 10° N
ATLAS CENTAUR R/B 3.1 20:30:06 10° NW 20:33:46 31° WSW 20:37:11 10° S
CZ-2D R/B 4.4 20:33:52 21° E 20:34:58 24° ENE 20:38:07 10° NNE
Cosmos 1408 Rocket 3.4 20:34:16 10° N 20:38:38 77° E 20:42:56 10° S
SL-8 R/B 3.9 20:34:26 10° SW 20:39:02 49° SE 20:42:04 20° ENE
Cosmos 1544 3.4 20:37:38 10° SSE 20:41:11 44° E 20:44:46 10° NNE
METEOR-M 4.1 20:36:09 10° SSE 20:41:30 86° ENE 20:46:53 10° NNW
Cosmos 468 4.5 20:37:16 10° S 20:42:26 61° ESE 20:47:36 10° NNE
Gbstr 26 Del rocket 4.1 20:41:00 10° S 20:44:44 28° SE 20:45:51 25° ESE
Cosmos 1378 4.4 20:42:29 10° NNW 20:46:03 43° W 20:49:35 10° SSW
Cosmos 1953 2.2 20:42:16 10° S 20:46:15 85° E 20:50:15 10° N
Cosmos 1420 Rocket 4.4 20:44:06 10° N 20:49:10 44° ENE 20:51:59 24° SE
H-2A R/B 3.4 20:50:10 32° E 20:50:55 35° ENE 20:54:29 10° N
Cosmos 1805 3.2 20:47:07 10° S 20:51:01 85° W 20:54:59 10° N
FENGYUN 3A 3.7 20:47:47 11° SSE 20:52:48 54° ENE 20:58:03 10° N
Resurs 1-3 3.5 20:50:02 10° SSE 20:54:24 80° ENE 20:58:49 10° N
Resurs 01 Rocket 1.8 20:50:51 10° S 20:55:17 76° WSW 20:59:45 10° NNW
ASTEX 1 3.4 20:54:16 10° NNE 20:59:05 54° E 21:03:51 10° S
Abrixas 2.3 20:57:05 10° SW 21:00:02 72° SSE 21:00:02 72° SSE
Cosmos 1346 3.1 20:58:43 10° N 21:01:23 61° NE 21:01:23 61° NE
Spot 2 Rocket 3.9 20:58:57 10° S 21:03:57 64° WSW 21:08:58 10° NNW
CENTAUR R/B 2.7 20:58:31 10° S 21:04:05 43° ESE 21:10:16 10° NE
Cosmos 1269 Rocket 3.9 20:59:36 10° S 21:04:52 76° ESE 21:10:09 10° NNE
Helios 1A 3.4 21:01:59 10° S 21:06:08 62° WSW 21:10:20 10° NNW
Cosmos 1048 Rocket 3.9 21:01:30 10° S 21:06:45 67° ESE 21:11:59 10° NNE
Cosmos 1743 Rocket 3.4 21:02:35 10° N 21:07:03 74° E 21:09:33 25° SSE
NOSS 3-2 (C) 4.4 21:02:22 10° SW 21:08:14 49° NW 21:14:39 10° NNE
Cosmos 1943 3.4 21:07:22 10° S 21:12:42 46° ESE 21:18:03 10° NE
Cosmos 1470 2.7 21:13:51 61° ENE 21:13:51 61° ENE 21:17:22 10° NNE
Cosmos 2369 Rocket 2.8 21:08:36 10° N 21:13:48 36° ENE 21:14:17 36° ENE
Envisat 4.4 21:16:18 22° NE 21:16:18 22° NE 21:19:00 10° NNE
Cosmos 1603 4.0 21:11:05 10° SSW 21:16:47 70° WNW 21:22:33 10° NNE
Cosmos 1943 Rocket 3.8 21:13:36 10° N 21:16:39 18° NE 21:16:39 18° NE
GPS 2-04 Rocket1 3.7 21:17:22 10° SW 21:19:40 30° SSW 21:19:40 30° SSW
Nadezhda 4 Rocket 4.0 21:15:29 10° N 21:21:47 82° W 21:27:59 10° S
GP-B 3.6 21:20:19 10° N 21:23:34 43° NE 21:23:34 43° NE
Cosmos 1655 Rocket 4.5 21:21:09 10° N 21:26:30 38° ENE 21:26:30 38° ENE
Cosmos 1092 Rocket 3.8 21:22:34 10° N 21:28:49 82° E 21:32:27 26° S
Cosmos 2142 Rocket 4.4 21:26:05 10° S 21:32:22 68° E 21:38:43 10° NNE
ISS -1.2 21:31:55 10° SW 21:33:16 23° WSW 21:33:16 23° WSW
Cosmos 1674 3.2 21:33:09 10° NNW 21:36:37 59° WNW 21:36:37 59° WNW
OAO 3 Rocket 3.6 21:36:25 10° W 21:40:37 51° SSW 21:40:37 51° SSW
USA 215 4.1 21:34:52 10° NE 21:41:06 48° NW 21:47:17 10° WSW
Cosmos 1634 Rocket 3.8 21:35:42 10° S 21:41:58 86° E 21:48:13 10° N
Cosmos 2026 Rocket 4.0 21:37:14 10° N 21:42:57 58° ENE 21:42:57 58° ENE
ALOS 3.4 21:42:33 18° SSW 21:45:40 41° W 21:50:05 10° NNW
ERS-1 Rocket 3.9 21:55:08 38° N 21:55:08 38° N 21:58:20 10° N
SeaSat 1 2.7 21:51:22 10° NNE 21:56:16 66° WNW 22:01:09 10° SW
ATLAS 5 CENTAUR R/B 4.3 21:54:37 10° W 21:58:15 20° NW 22:02:06 10° N
Cosmos 2195 Rocket 4.5 21:58:41 10° N 22:05:02 81° W 22:05:32 75° SSW
Cosmos 839 Rocket 4.3 22:17:49 10° NNW 22:24:46 72° W 22:24:46 72° W
CENTAUR R/B 3.9 22:49:16 10° WSW 22:54:50 34° NW 23:01:02 10° NNE
Cosmos 2369 Rocket 4.1 22:52:50 10° NW 22:56:07 26° WNW 22:56:07 26° WNW
Cosmos 1943 Rocket 4.2 22:56:03 10° NNW 22:58:11 24° NNW 22:58:11 24° NNW
